Home   Weather   Woodbridge   Past weeks
Flag for USA

Past Weather in Woodbridge, North Carolina, USA — Yesterday and Last 2 Weeks

Now
62 °F

Sunny.


Feels Like: 62 °F
Forecast: 68 / 44 °F
Wind: 5 mph from Northwest

Location: Fayetteville Regional Airport

Current Time: Oct 18, 2019 at 12:50:48 pm

Latest Report: Oct 18, 2019 at 11:53 am


Visibility: 10 mi

Pressure: 30.02 "Hg

Humidity: 38%

Dew Point: 36 °F

Location of WoodbridgeLocation

Past Weather in Woodbridge — Graph

°F

Woodbridge Temperature Yesterday

Maximum temperature yesterday: 67 °F (at 3:53 pm)
Minimum temperature yesterday: 48 °F (at 7:53 am)
Average temperature yesterday: 57 °F

High & Low Weather Summary for the Past Weeks

 TemperatureHumidityPressure
High99 °F (Oct 3, 3:53 pm)97% (Oct 14, 5:25 am)30.27 "Hg (Oct 14, 5:25 am)
Low46 °F (Oct 18, 4:53 am)30% (Oct 3, 3:53 pm)29.57 "Hg (Oct 16, 2:53 pm)
Average68 °F69%30.02 "Hg
* Reported Oct 3 10:53 am — Oct 18 10:53 am, Woodbridge. Weather by CustomWeather, © 2019

Note: Actual official high and low records may vary slightly from our data, if they occured in-between our weather recording intervals... More about our weather records

Advertising

Woodbridge Weather History for the Previous 24 Hours

Scroll right to see more
 ConditionsComfort  
Time TempWeatherWind HumidityBarometerVisibility
10:53 am
Fri, Oct 18
62 °FSunny.9 mph38%30.02 "Hg10 mi
9:53 am59 °FSunny.10 mph46%30.01 "Hg10 mi
8:53 am54 °FSunny.7 mph57%30.01 "Hg10 mi
7:53 am48 °FSunny.5 mph71%29.99 "Hg10 mi
6:53 am48 °FClear.5 mph68%29.99 "Hg10 mi
5:53 am49 °FClear.5 mph66%29.97 "Hg10 mi
4:53 am46 °FClear.5 mph77%29.96 "Hg10 mi
3:53 am52 °FClear.7 mph57%29.93 "Hg10 mi
2:53 am53 °FClear.6 mph56%29.93 "Hg10 mi
1:53 am54 °FClear.7 mph55%29.92 "Hg10 mi
12:53 am56 °FClear.8 mph49%29.90 "Hg10 mi
11:53 pm
Thu, Oct 17
55 °FClear.7 mph55%29.89 "Hg10 mi
10:53 pm56 °FClear.5 mph53%29.88 "Hg10 mi
9:53 pm56 °FClear.6 mph53%29.88 "Hg10 mi
8:53 pm57 °FClear.6 mph53%29.87 "Hg10 mi
7:53 pm58 °FClear.5 mph51%29.86 "Hg10 mi
6:53 pm62 °FClear.6 mph39%29.83 "Hg10 mi
5:53 pm65 °FSunny.10 mph33%29.82 "Hg10 mi
4:53 pm66 °FSunny.10 mph34%29.82 "Hg10 mi
3:53 pm67 °FSunny.12 mph33%29.82 "Hg10 mi
2:53 pm66 °FSunny.10 mph34%29.83 "Hg10 mi
1:53 pm64 °FSunny.14 mph37%29.85 "Hg10 mi
12:53 pm63 °FSunny.10 mph37%29.88 "Hg10 mi
Weather by CustomWeather, © 2019

See weather overview